Time,TemperatureF,DewpointF,PressureIn,WindDirection,WindDirectionDegrees,WindSpeedMPH,WindSpeedGustMPH,Humidity,HourlyPrecipIn,Conditions,Clouds,dailyrainin,SoftwareType,DateUTC
2013-05-08 00:01:00,63.8,59.9,30.05,South,191,0.0,-999.0,87,0.00,,,0.00,WeatherSnoop3.0,2013-05-08 05:01:00,
2013-05-08 00:06:00,63.7,60.1,30.05,South,190,0.0,-999.0,88,0.00,,,0.00,WeatherSnoop3.0,2013-05-08 05:06:00,
2013-05-08 00:11:00,63.8,60.2,30.05,South,190,0.0,-999.0,88,0.00,,,0.00,WeatherSnoop3.0,2013-05-08 05:11:00,
2013-05-08 00:16:00,63.6,60.0,30.05,South,191,0.0,-999.0,88,0.00,,,0.00,WeatherSnoop3.0,2013-05-08 05:16:00,
2013-05-08 00:21:00,63.4,59.8,30.05,South,190,0.0,-999.0,88,0.00,,,0.00,WeatherSnoop3.0,2013-05-08 05:21:00,
2013-05-08 00:26:00,63.2,59.6,30.05,South,191,0.0,-999.0,88,0.00,,,0.00,WeatherSnoop3.0,2013-05-08 05:26:00,
2013-05-08 00:31:00,62.9,59.6,30.04,South,191,0.0,-999.0,89,0.00,,,0.00,WeatherSnoop3.0,2013-05-08 05:31:00,
2013-05-08 00:36:00,62.7,59.4,30.04,South,190,0.0,-999.0,89,0.00,,,0.00,WeatherSnoop3.0,2013-05-08 05:36:00,
2013-05-08 00:41:00,62.6,59.6,30.04,South,191,0.0,-999.0,90,0.00,,,0.00,WeatherSnoop3.0,2013-05-08 05:41:00,
2013-05-08 00:46:00,62.6,60.2,30.04,South,190,0.0,-999.0,92,0.00,,,0.00,WeatherSnoop3.0,2013-05-08 05:46:00,
2013-05-08 00:51:00,62.4,59.4,30.04,South,190,0.0,-999.0,90,0.00,,,0.00,WeatherSnoop3.0,2013-05-08 05:51:00,
2013-05-08 00:56:00,62.3,59.3,30.04,South,190,0.0,-999.0,90,0.00,,,0.00,WeatherSnoop3.0,2013-05-08 05:56:00,
2013-05-08 01:01:00,62.1,59.1,30.04,South,190,0.0,-999.0,90,0.00,,,0.00,WeatherSnoop3.0,2013-05-08 06:01:00,
2013-05-08 01:06:00,61.8,58.8,30.04,South,191,0.0,-999.0,90,0.00,,,0.00,WeatherSnoop3.0,2013-05-08 06:06:00,
2013-05-08 01:11:00,61.7,59.0,30.04,South,190,0.0,-999.0,91,0.00,,,0.00,WeatherSnoop3.0,2013-05-08 06:11:00,
2013-05-08 01:16:00,61.8,59.4,30.04,South,190,0.0,-999.0,92,0.00,,,0.00,WeatherSnoop3.0,2013-05-08 06:16:00,
2013-05-08 01:21:00,61.7,59.3,30.04,South,190,0.0,-999.0,92,0.00,,,0.00,WeatherSnoop3.0,2013-05-08 06:21:00,
2013-05-08 01:26:00,61.6,59.3,30.04,South,190,0.0,-999.0,92,0.00,,,0.00,WeatherSnoop3.0,2013-05-08 06:26:00,
2013-05-08 01:31:00,61.4,59.1,30.04,South,191,0.0,-999.0,92,0.00,,,0.00,WeatherSnoop3.0,2013-05-08 06:31:00,
2013-05-08 01:36:00,61.4,59.1,30.03,South,190,0.0,-999.0,92,0.00,,,0.00,WeatherSnoop3.0,2013-05-08 06:36:00,
2013-05-08 01:41:00,61.3,59.0,30.03,South,190,0.0,-999.0,92,0.00,,,0.00,WeatherSnoop3.0,2013-05-08 06:41:00,
2013-05-08 01:46:00,61.2,59.2,30.03,South,190,0.0,-999.0,93,0.00,,,0.00,WeatherSnoop3.0,2013-05-08 06:46:00,
2013-05-08 01:51:00,61.1,59.1,30.03,South,190,0.0,-999.0,93,0.00,,,0.00,WeatherSnoop3.0,2013-05-08 06:51:00,
2013-05-08 01:56:00,61.0,59.0,30.03,South,191,0.0,-999.0,93,0.00,,,0.00,WeatherSnoop3.0,2013-05-08 06:56:00,
2013-05-08 02:01:00,60.9,58.9,30.03,South,190,0.0,-999.0,93,0.00,,,0.00,WeatherSnoop3.0,2013-05-08 07:01:00,
2013-05-08 02:06:00,60.8,58.8,30.03,South,190,0.0,-999.0,93,0.00,,,0.00,WeatherSnoop3.0,2013-05-08 07:06:00,
2013-05-08 02:11:00,60.6,58.6,30.03,South,190,0.0,-999.0,93,0.00,,,0.00,WeatherSnoop3.0,2013-05-08 07:11:00,
2013-05-08 02:16:00,60.4,58.4,30.03,South,190,0.0,-999.0,93,0.00,,,0.00,WeatherSnoop3.0,2013-05-08 07:16:00,
2013-05-08 02:21:00,60.2,58.2,30.03,South,190,0.0,-999.0,93,0.00,,,0.00,WeatherSnoop3.0,2013-05-08 07:21:00,
2013-05-08 02:26:00,60.2,58.2,30.02,South,190,0.0,-999.0,93,0.00,,,0.00,WeatherSnoop3.0,2013-05-08 07:26:00,
2013-05-08 02:31:00,60.1,58.1,30.02,South,190,0.0,-999.0,93,0.00,,,0.00,WeatherSnoop3.0,2013-05-08 07:31:00,
2013-05-08 02:36:00,60.0,58.0,30.02,South,191,0.0,-999.0,93,0.00,,,0.00,WeatherSnoop3.0,2013-05-08 07:36:00,
2013-05-08 02:41:00,59.9,58.2,30.02,South,191,0.0,-999.0,94,0.00,,,0.00,WeatherSnoop3.0,2013-05-08 07:41:00,
2013-05-08 02:46:00,59.9,58.2,30.02,South,190,0.0,-999.0,94,0.00,,,0.00,WeatherSnoop3.0,2013-05-08 07:46:00,
2013-05-08 02:51:00,59.8,58.1,30.02,South,191,0.0,-999.0,94,0.00,,,0.00,WeatherSnoop3.0,2013-05-08 07:51:00,
2013-05-08 02:56:00,59.6,57.9,30.02,South,191,0.0,-999.0,94,0.00,,,0.00,WeatherSnoop3.0,2013-05-08 07:56:00,
2013-05-08 03:01:00,59.5,57.8,30.02,South,190,0.0,-999.0,94,0.00,,,0.00,WeatherSnoop3.0,2013-05-08 08:01:00,
2013-05-08 03:06:00,59.4,57.7,30.02,South,190,0.0,-999.0,94,0.00,,,0.00,WeatherSnoop3.0,2013-05-08 08:06:00,
2013-05-08 03:11:00,59.3,57.6,30.02,South,191,0.0,-999.0,94,0.00,,,0.00,WeatherSnoop3.0,2013-05-08 08:11:00,
2013-05-08 03:16:00,59.2,57.5,30.02,South,190,0.0,-999.0,94,0.00,,,0.00,WeatherSnoop3.0,2013-05-08 08:16:00,
2013-05-08 03:21:00,59.1,57.4,30.02,South,190,0.0,-999.0,94,0.00,,,0.00,WeatherSnoop3.0,2013-05-08 08:21:00,
2013-05-08 03:26:00,59.1,57.4,30.02,South,190,0.0,-999.0,94,0.00,,,0.00,WeatherSnoop3.0,2013-05-08 08:26:00,
2013-05-08 03:31:00,59.0,57.3,30.02,South,190,0.0,-999.0,94,0.00,,,0.00,WeatherSnoop3.0,2013-05-08 08:31:00,
2013-05-08 03:36:00,58.9,57.2,30.02,South,190,0.0,-999.0,94,0.00,,,0.00,WeatherSnoop3.0,2013-05-08 08:36:00,
2013-05-08 03:41:00,58.8,57.1,30.02,South,190,0.0,-999.0,94,0.00,,,0.00,WeatherSnoop3.0,2013-05-08 08:41:00,
2013-05-08 03:46:00,58.8,57.1,30.02,South,190,0.0,-999.0,94,0.00,,,0.00,WeatherSnoop3.0,2013-05-08 08:46:00,
2013-05-08 03:51:00,58.7,57.0,30.02,South,190,0.0,-999.0,94,0.00,,,0.00,WeatherSnoop3.0,2013-05-08 08:51:00,
2013-05-08 03:56:00,58.7,57.0,30.02,South,190,0.0,-999.0,94,0.00,,,0.00,WeatherSnoop3.0,2013-05-08 08:56:00,
2013-05-08 04:01:00,58.6,56.9,30.02,South,190,0.0,-999.0,94,0.00,,,0.00,WeatherSnoop3.0,2013-05-08 09:01:00,
2013-05-08 04:06:00,58.7,57.0,30.02,South,190,0.0,-999.0,94,0.00,,,0.00,WeatherSnoop3.0,2013-05-08 09:06:00,
2013-05-08 04:11:00,58.5,56.8,30.02,South,191,0.0,-999.0,94,0.00,,,0.00,WeatherSnoop3.0,2013-05-08 09:11:00,
2013-05-08 04:16:00,58.4,57.0,30.03,South,190,0.0,-999.0,95,0.00,,,0.00,WeatherSnoop3.0,2013-05-08 09:16:00,
2013-05-08 04:21:00,58.3,56.9,30.03,South,191,0.0,-999.0,95,0.00,,,0.00,WeatherSnoop3.0,2013-05-08 09:21:00,
2013-05-08 04:26:00,58.2,56.8,30.03,South,190,0.0,-999.0,95,0.00,,,0.00,WeatherSnoop3.0,2013-05-08 09:26:00,
2013-05-08 04:31:00,58.3,56.9,30.03,South,190,0.0,-999.0,95,0.00,,,0.00,WeatherSnoop3.0,2013-05-08 09:31:00,
2013-05-08 04:36:00,58.3,56.9,30.03,South,191,0.0,-999.0,95,0.00,,,0.00,WeatherSnoop3.0,2013-05-08 09:36:00,
2013-05-08 04:41:00,58.2,56.8,30.03,SSW,192,0.0,-999.0,95,0.00,,,0.00,WeatherSnoop3.0,2013-05-08 09:41:00,
2013-05-08 04:46:00,58.0,56.6,30.03,South,191,0.0,-999.0,95,0.00,,,0.00,WeatherSnoop3.0,2013-05-08 09:46:00,
2013-05-08 04:51:00,57.9,56.5,30.03,South,190,0.0,-999.0,95,0.00,,,0.00,WeatherSnoop3.0,2013-05-08 09:51:00,
2013-05-08 04:56:00,57.8,56.4,30.03,South,190,0.0,-999.0,95,0.00,,,0.00,WeatherSnoop3.0,2013-05-08 09:56:00,
2013-05-08 05:01:00,57.7,56.3,30.03,South,190,0.0,-999.0,95,0.00,,,0.00,WeatherSnoop3.0,2013-05-08 10:01:00,
2013-05-08 05:06:00,57.7,56.3,30.03,South,190,0.0,-999.0,95,0.00,,,0.00,WeatherSnoop3.0,2013-05-08 10:06:00,
2013-05-08 05:11:00,57.7,56.3,30.03,South,190,0.0,-999.0,95,0.00,,,0.00,WeatherSnoop3.0,2013-05-08 10:11:00,
2013-05-08 05:16:00,57.8,56.4,30.04,South,190,0.0,-999.0,95,0.00,,,0.00,WeatherSnoop3.0,2013-05-08 10:16:00,
2013-05-08 05:21:00,58.0,56.6,30.04,South,191,0.0,-999.0,95,0.00,,,0.00,WeatherSnoop3.0,2013-05-08 10:21:00,
2013-05-08 05:26:00,58.0,56.6,30.04,South,190,0.0,-999.0,95,0.00,,,0.00,WeatherSnoop3.0,2013-05-08 10:26:00,
2013-05-08 05:31:00,57.9,56.5,30.04,SSW,192,0.0,-999.0,95,0.00,,,0.00,WeatherSnoop3.0,2013-05-08 10:31:00,
2013-05-08 05:36:00,57.8,56.4,30.04,South,190,0.0,-999.0,95,0.00,,,0.00,WeatherSnoop3.0,2013-05-08 10:36:00,
2013-05-08 05:41:00,57.9,56.5,30.04,South,190,0.0,-999.0,95,0.00,,,0.00,WeatherSnoop3.0,2013-05-08 10:41:00,
2013-05-08 05:46:00,57.9,56.8,30.04,South,190,0.0,-999.0,96,0.00,,,0.00,WeatherSnoop3.0,2013-05-08 10:46:00,
2013-05-08 05:51:00,57.9,56.8,30.04,South,190,0.0,-999.0,96,0.00,,,0.00,WeatherSnoop3.0,2013-05-08 10:51:00,
2013-05-08 05:56:00,58.0,56.9,30.05,South,190,0.0,-999.0,96,0.00,,,0.00,WeatherSnoop3.0,2013-05-08 10:56:00,
2013-05-08 06:01:00,58.0,56.9,30.05,South,191,0.0,-999.0,96,0.00,,,0.00,WeatherSnoop3.0,2013-05-08 11:01:00,
2013-05-08 06:06:00,57.9,56.8,30.05,South,190,0.0,-999.0,96,0.00,,,0.00,WeatherSnoop3.0,2013-05-08 11:06:00,
2013-05-08 06:11:00,58.1,57.0,30.05,SSW,192,0.0,-999.0,96,0.00,,,0.00,WeatherSnoop3.0,2013-05-08 11:11:00,
2013-05-08 06:16:00,58.5,57.4,30.05,South,191,0.0,-999.0,96,0.00,,,0.00,WeatherSnoop3.0,2013-05-08 11:16:00,
2013-05-08 06:21:00,59.2,58.1,30.05,South,191,0.0,-999.0,96,0.00,,,0.00,WeatherSnoop3.0,2013-05-08 11:21:00,
2013-05-08 06:26:00,59.4,58.3,30.05,South,190,0.0,-999.0,96,0.00,,,0.00,WeatherSnoop3.0,2013-05-08 11:26:00,
2013-05-08 06:31:00,59.8,58.7,30.05,South,191,0.0,-999.0,96,0.00,,,0.00,WeatherSnoop3.0,2013-05-08 11:31:00,
2013-05-08 06:36:00,60.0,58.9,30.05,South,191,0.0,-999.0,96,0.00,,,0.00,WeatherSnoop3.0,2013-05-08 11:36:00,
2013-05-08 06:41:00,60.1,59.0,30.06,South,191,0.0,-999.0,96,0.00,,,0.00,WeatherSnoop3.0,2013-05-08 11:41:00,
2013-05-08 06:46:00,60.2,59.1,30.06,South,191,0.0,-999.0,96,0.00,,,0.00,WeatherSnoop3.0,2013-05-08 11:46:00,
2013-05-08 06:51:00,60.2,59.1,30.06,South,190,0.0,-999.0,96,0.00,,,0.00,WeatherSnoop3.0,2013-05-08 11:51:00,
2013-05-08 06:56:00,60.2,59.1,30.06,South,190,0.0,-999.0,96,0.00,,,0.00,WeatherSnoop3.0,2013-05-08 11:56:00,
2013-05-08 07:01:00,60.3,59.2,30.07,South,190,0.0,-999.0,96,0.00,,,0.00,WeatherSnoop3.0,2013-05-08 12:01:00,
2013-05-08 07:06:00,60.5,59.4,30.07,South,190,0.0,-999.0,96,0.00,,,0.00,WeatherSnoop3.0,2013-05-08 12:06:00,
2013-05-08 07:11:00,60.6,59.5,30.07,South,190,0.0,-999.0,96,0.00,,,0.00,WeatherSnoop3.0,2013-05-08 12:11:00,
2013-05-08 07:16:00,60.7,59.6,30.07,South,191,0.0,-999.0,96,0.00,,,0.00,WeatherSnoop3.0,2013-05-08 12:16:00,
2013-05-08 07:21:00,60.8,59.7,30.07,South,190,0.0,-999.0,96,0.00,,,0.00,WeatherSnoop3.0,2013-05-08 12:21:00,
2013-05-08 07:26:00,60.8,59.7,30.08,South,190,0.0,-999.0,96,0.00,,,0.00,WeatherSnoop3.0,2013-05-08 12:26:00,
2013-05-08 07:31:00,60.9,59.8,30.07,South,190,0.0,-999.0,96,0.00,,,0.00,WeatherSnoop3.0,2013-05-08 12:31:00,
2013-05-08 07:36:00,61.4,60.2,30.07,South,190,0.0,-999.0,96,0.00,,,0.00,WeatherSnoop3.0,2013-05-08 12:36:00,
2013-05-08 07:41:00,61.8,60.6,30.08,South,190,0.0,-999.0,96,0.00,,,0.00,WeatherSnoop3.0,2013-05-08 12:41:00,
2013-05-08 07:46:00,62.1,61.2,30.08,South,190,0.0,-999.0,97,0.00,,,0.00,WeatherSnoop3.0,2013-05-08 12:46:00,
2013-05-08 07:51:00,62.5,61.3,30.08,South,190,0.0,-999.0,96,0.00,,,0.00,WeatherSnoop3.0,2013-05-08 12:51:00,
2013-05-08 07:56:00,62.8,61.9,30.08,South,190,0.0,-999.0,97,0.00,,,0.00,WeatherSnoop3.0,2013-05-08 12:56:00,
2013-05-08 08:01:00,63.2,62.3,30.08,South,191,0.0,-999.0,97,0.00,,,0.00,WeatherSnoop3.0,2013-05-08 13:01:00,
2013-05-08 08:06:00,63.7,62.8,30.08,South,190,0.0,-999.0,97,0.00,,,0.00,WeatherSnoop3.0,2013-05-08 13:06:00,
2013-05-08 08:11:00,64.1,63.2,30.09,South,190,0.0,-999.0,97,0.00,,,0.00,WeatherSnoop3.0,2013-05-08 13:11:00,
2013-05-08 08:16:00,64.4,63.5,30.09,SSW,192,0.0,-999.0,97,0.00,,,0.00,WeatherSnoop3.0,2013-05-08 13:16:00,
2013-05-08 08:21:00,64.8,63.9,30.09,South,190,0.0,-999.0,97,0.00,,,0.00,WeatherSnoop3.0,2013-05-08 13:21:00,
2013-05-08 08:26:00,65.0,64.1,30.09,South,191,0.0,-999.0,97,0.00,,,0.00,WeatherSnoop3.0,2013-05-08 13:26:00,
2013-05-08 08:31:00,65.4,64.5,30.09,South,190,0.0,-999.0,97,0.00,,,0.00,WeatherSnoop3.0,2013-05-08 13:31:00,
2013-05-08 08:36:00,65.7,64.8,30.09,South,190,0.0,-999.0,97,0.00,,,0.00,WeatherSnoop3.0,2013-05-08 13:36:00,
2013-05-08 08:41:00,66.0,65.1,30.09,South,190,0.0,-999.0,97,0.00,,,0.00,WeatherSnoop3.0,2013-05-08 13:41:00,
2013-05-08 08:46:00,66.2,65.3,30.09,South,190,0.0,-999.0,97,0.00,,,0.00,WeatherSnoop3.0,2013-05-08 13:46:00,
2013-05-08 08:51:00,66.5,65.6,30.09,South,190,0.0,-999.0,97,0.00,,,0.00,WeatherSnoop3.0,2013-05-08 13:51:00,
2013-05-08 08:56:00,66.7,65.8,30.09,South,191,0.0,-999.0,97,0.00,,,0.00,WeatherSnoop3.0,2013-05-08 13:56:00,
2013-05-08 09:01:00,67.0,65.8,30.09,South,190,0.0,-999.0,96,0.00,,,0.00,WeatherSnoop3.0,2013-05-08 14:01:00,
2013-05-08 09:06:00,67.5,66.3,30.10,South,190,0.0,-999.0,96,0.00,,,0.00,WeatherSnoop3.0,2013-05-08 14:06:00,
2013-05-08 09:11:00,67.9,66.7,30.10,South,190,0.0,-999.0,96,0.00,,,0.00,WeatherSnoop3.0,2013-05-08 14:11:00,
2013-05-08 09:16:00,68.1,66.6,30.10,South,191,0.0,-999.0,95,0.00,,,0.00,WeatherSnoop3.0,2013-05-08 14:16:00,
2013-05-08 09:21:00,68.5,67.0,30.10,South,191,0.0,-999.0,95,0.00,,,0.00,WeatherSnoop3.0,2013-05-08 14:21:00,
2013-05-08 09:26:00,69.0,67.2,30.10,South,191,0.0,-999.0,94,0.00,,,0.00,WeatherSnoop3.0,2013-05-08 14:26:00,
2013-05-08 09:31:00,69.2,66.8,30.10,South,184,0.0,-999.0,92,0.00,,,0.00,WeatherSnoop3.0,2013-05-08 14:31:00,
2013-05-08 09:36:00,69.5,66.4,30.10,South,184,0.0,-999.0,90,0.00,,,0.00,WeatherSnoop3.0,2013-05-08 14:36:00,
2013-05-08 09:41:00,70.3,66.6,30.10,South,179,0.0,-999.0,88,0.00,,,0.00,WeatherSnoop3.0,2013-05-08 14:41:00,
2013-05-08 09:46:00,70.9,66.5,30.10,South,179,0.0,-999.0,86,0.00,,,0.00,WeatherSnoop3.0,2013-05-08 14:46:00,
2013-05-08 09:51:00,71.7,66.9,30.10,South,179,0.0,-999.0,85,0.00,,,0.00,WeatherSnoop3.0,2013-05-08 14:51:00,
2013-05-08 09:56:00,72.1,65.9,30.10,South,179,0.0,-999.0,81,0.00,,,0.00,WeatherSnoop3.0,2013-05-08 14:56:00,
2013-05-08 10:01:00,72.4,66.2,30.10,South,179,0.0,-999.0,81,0.00,,,0.00,WeatherSnoop3.0,2013-05-08 15:01:00,
2013-05-08 10:06:00,72.8,66.3,30.10,South,179,0.0,-999.0,80,0.00,,,0.00,WeatherSnoop3.0,2013-05-08 15:06:00,
2013-05-08 10:11:00,73.3,66.4,30.10,South,178,0.0,-999.0,79,0.00,,,0.00,WeatherSnoop3.0,2013-05-08 15:11:00,
2013-05-08 10:16:00,73.7,65.3,30.10,South,179,0.0,-999.0,75,0.00,,,0.00,WeatherSnoop3.0,2013-05-08 15:16:00,
2013-05-08 10:21:00,73.9,63.9,30.10,South,179,0.0,-999.0,71,0.00,,,0.00,WeatherSnoop3.0,2013-05-08 15:21:00,
2013-05-08 10:26:00,74.2,65.0,30.10,South,178,0.0,-999.0,73,0.00,,,0.00,WeatherSnoop3.0,2013-05-08 15:26:00,
2013-05-08 10:31:00,74.8,64.8,30.10,South,179,0.0,-999.0,71,0.00,,,0.00,WeatherSnoop3.0,2013-05-08 15:31:00,
2013-05-08 10:36:00,74.8,64.3,30.10,South,179,0.0,-999.0,70,0.00,,,0.00,WeatherSnoop3.0,2013-05-08 15:36:00,
2013-05-08 10:41:00,75.1,65.4,30.10,SE,140,0.0,-999.0,72,0.00,,,0.00,WeatherSnoop3.0,2013-05-08 15:41:00,
2013-05-08 10:46:00,75.7,66.8,30.10,SE,130,0.0,-999.0,74,0.00,,,0.00,WeatherSnoop3.0,2013-05-08 15:46:00,
2013-05-08 10:51:00,75.7,63.9,30.10,SSE,167,0.0,-999.0,67,0.00,,,0.00,WeatherSnoop3.0,2013-05-08 15:51:00,
2013-05-08 10:56:00,76.0,63.8,30.11,SSE,149,0.0,-999.0,66,0.00,,,0.00,WeatherSnoop3.0,2013-05-08 15:56:00,
2013-05-08 11:01:00,76.4,64.6,30.11,ESE,117,0.0,-999.0,67,0.00,,,0.00,WeatherSnoop3.0,2013-05-08 16:01:00,
2013-05-08 11:06:00,76.9,64.7,30.11,SSE,167,0.0,-999.0,66,0.00,,,0.00,WeatherSnoop3.0,2013-05-08 16:06:00,
2013-05-08 11:11:00,77.3,64.6,30.11,SSE,163,0.0,-999.0,65,0.00,,,0.00,WeatherSnoop3.0,2013-05-08 16:11:00,
2013-05-08 11:16:00,77.8,65.9,30.11,ESE,113,0.0,-999.0,67,0.00,,,0.00,WeatherSnoop3.0,2013-05-08 16:16:00,
2013-05-08 11:21:00,77.8,64.2,30.10,SE,145,0.0,-999.0,63,0.00,,,0.00,WeatherSnoop3.0,2013-05-08 16:21:00,
2013-05-08 11:26:00,77.7,63.2,30.10,South,169,0.0,-999.0,61,0.00,,,0.00,WeatherSnoop3.0,2013-05-08 16:26:00,
2013-05-08 11:31:00,77.5,63.9,30.10,SE,142,0.0,-999.0,63,0.00,,,0.00,WeatherSnoop3.0,2013-05-08 16:31:00,
2013-05-08 11:36:00,77.8,64.2,30.10,ESE,109,0.0,-999.0,63,0.00,,,0.00,WeatherSnoop3.0,2013-05-08 16:36:00,
2013-05-08 11:41:00,78.0,63.9,30.10,SSE,148,0.0,-999.0,62,0.00,,,0.00,WeatherSnoop3.0,2013-05-08 16:41:00,
2013-05-08 11:46:00,78.4,64.7,30.10,SE,142,0.0,-999.0,63,0.00,,,0.00,WeatherSnoop3.0,2013-05-08 16:46:00,
2013-05-08 11:51:00,78.9,64.8,30.10,SSE,159,0.0,-999.0,62,0.00,,,0.00,WeatherSnoop3.0,2013-05-08 16:51:00,
2013-05-08 11:56:00,79.3,65.1,30.10,SSE,149,0.0,-999.0,62,0.00,,,0.00,WeatherSnoop3.0,2013-05-08 16:56:00,
2013-05-08 12:01:00,79.1,64.5,30.10,SSW,194,0.0,-999.0,61,0.00,,,0.00,WeatherSnoop3.0,2013-05-08 17:01:00,
2013-05-08 12:06:00,79.3,64.7,30.10,SSE,152,0.0,-999.0,61,0.00,,,0.00,WeatherSnoop3.0,2013-05-08 17:06:00,
2013-05-08 12:11:00,79.3,63.2,30.10,SSW,194,0.0,-999.0,58,0.00,,,0.00,WeatherSnoop3.0,2013-05-08 17:11:00,
2013-05-08 12:16:00,79.4,64.3,30.10,South,190,0.0,-999.0,60,0.00,,,0.00,WeatherSnoop3.0,2013-05-08 17:16:00,
2013-05-08 12:21:00,79.2,63.1,30.09,South,177,0.0,-999.0,58,0.00,,,0.00,WeatherSnoop3.0,2013-05-08 17:21:00,
2013-05-08 12:26:00,79.2,63.6,30.09,South,179,0.0,-999.0,59,0.00,,,0.00,WeatherSnoop3.0,2013-05-08 17:26:00,
2013-05-08 12:31:00,79.7,64.1,30.09,SE,146,0.0,-999.0,59,0.00,,,0.00,WeatherSnoop3.0,2013-05-08 17:31:00,
2013-05-08 12:36:00,80.2,65.0,30.09,SSE,155,0.0,-999.0,60,0.00,,,0.00,WeatherSnoop3.0,2013-05-08 17:36:00,
2013-05-08 12:41:00,80.3,64.2,30.09,SSE,165,0.0,-999.0,58,0.00,,,0.00,WeatherSnoop3.0,2013-05-08 17:41:00,
2013-05-08 12:46:00,80.7,64.5,30.09,SE,143,0.0,-999.0,58,0.00,,,0.00,WeatherSnoop3.0,2013-05-08 17:46:00,
2013-05-08 12:51:00,80.7,66.0,30.09,SSE,158,0.0,-999.0,61,0.00,,,0.00,WeatherSnoop3.0,2013-05-08 17:51:00,
2013-05-08 12:56:00,80.7,64.0,30.09,SSE,153,0.0,-999.0,57,0.00,,,0.00,WeatherSnoop3.0,2013-05-08 17:56:00,
2013-05-08 13:01:00,80.3,64.6,30.09,SSW,196,0.0,-999.0,59,0.00,,,0.00,WeatherSnoop3.0,2013-05-08 18:01:00,
2013-05-08 13:06:00,80.5,63.3,30.09,South,186,0.0,-999.0,56,0.00,,,0.00,WeatherSnoop3.0,2013-05-08 18:06:00,
2013-05-08 13:11:00,80.7,64.5,30.09,SSE,165,0.0,-999.0,58,0.00,,,0.00,WeatherSnoop3.0,2013-05-08 18:11:00,
2013-05-08 13:16:00,81.0,65.3,30.09,South,175,0.0,-999.0,59,0.00,,,0.00,WeatherSnoop3.0,2013-05-08 18:16:00,
2013-05-08 13:21:00,81.6,66.3,30.08,South,180,0.0,-999.0,60,0.00,,,0.00,WeatherSnoop3.0,2013-05-08 18:21:00,
2013-05-08 13:26:00,81.8,65.1,30.08,South,178,0.0,-999.0,57,0.00,,,0.00,WeatherSnoop3.0,2013-05-08 18:26:00,
2013-05-08 13:31:00,81.8,64.5,30.08,SSE,161,0.0,-999.0,56,0.00,,,0.00,WeatherSnoop3.0,2013-05-08 18:31:00,
2013-05-08 13:36:00,82.0,65.2,30.08,South,173,0.0,-999.0,57,0.00,,,0.00,WeatherSnoop3.0,2013-05-08 18:36:00,
2013-05-08 13:41:00,81.5,65.3,30.09,South,169,0.0,-999.0,58,0.00,,,0.00,WeatherSnoop3.0,2013-05-08 18:41:00,
2013-05-08 13:46:00,81.7,66.0,30.08,South,178,0.0,-999.0,59,0.00,,,0.00,WeatherSnoop3.0,2013-05-08 18:46:00,
2013-05-08 13:51:00,82.1,65.3,30.08,South,179,0.0,-999.0,57,0.00,,,0.00,WeatherSnoop3.0,2013-05-08 18:51:00,
2013-05-08 13:56:00,82.1,65.8,30.09,South,189,0.0,-999.0,58,0.00,,,0.00,WeatherSnoop3.0,2013-05-08 18:56:00,
2013-05-08 14:01:00,82.5,67.2,30.08,South,171,0.0,-999.0,60,0.00,,,0.00,WeatherSnoop3.0,2013-05-08 19:01:00,
2013-05-08 14:06:00,82.0,66.2,30.08,SSW,205,0.0,-999.0,59,0.00,,,0.00,WeatherSnoop3.0,2013-05-08 19:06:00,
2013-05-08 14:11:00,82.0,66.2,30.08,SW,223,0.0,-999.0,59,0.00,,,0.00,WeatherSnoop3.0,2013-05-08 19:11:00,
2013-05-08 14:16:00,82.6,67.3,30.08,South,175,0.0,-999.0,60,0.00,,,0.00,WeatherSnoop3.0,2013-05-08 19:16:00,
2013-05-08 14:21:00,82.4,64.6,30.08,SE,144,0.0,-999.0,55,0.00,,,0.00,WeatherSnoop3.0,2013-05-08 19:21:00,
2013-05-08 14:26:00,81.8,65.6,30.07,SSE,157,0.0,-999.0,58,0.00,,,0.00,WeatherSnoop3.0,2013-05-08 19:26:00,
2013-05-08 14:31:00,81.8,64.5,30.07,SSE,156,0.0,-999.0,56,0.00,,,0.00,WeatherSnoop3.0,2013-05-08 19:31:00,
2013-05-08 14:36:00,81.4,65.7,30.07,SE,144,0.0,-999.0,59,0.00,,,0.00,WeatherSnoop3.0,2013-05-08 19:36:00,
2013-05-08 14:41:00,82.7,66.4,30.07,South,188,0.0,-999.0,58,0.00,,,0.00,WeatherSnoop3.0,2013-05-08 19:41:00,
2013-05-08 14:46:00,83.0,64.6,30.07,South,184,0.0,-999.0,54,0.00,,,0.00,WeatherSnoop3.0,2013-05-08 19:46:00,
2013-05-08 14:51:00,82.7,64.9,30.07,SE,135,0.0,-999.0,55,0.00,,,0.00,WeatherSnoop3.0,2013-05-08 19:51:00,
2013-05-08 14:56:00,83.3,65.4,30.07,SSW,199,0.0,-999.0,55,0.00,,,0.00,WeatherSnoop3.0,2013-05-08 19:56:00,
2013-05-08 15:01:00,83.3,63.8,30.06,SSW,196,0.0,-999.0,52,0.00,,,0.00,WeatherSnoop3.0,2013-05-08 20:01:00,
2013-05-08 15:06:00,82.7,64.9,30.06,SSE,166,0.0,-999.0,55,0.00,,,0.00,WeatherSnoop3.0,2013-05-08 20:06:00,
2013-05-08 15:11:00,82.7,64.9,30.06,SSE,161,0.0,-999.0,55,0.00,,,0.00,WeatherSnoop3.0,2013-05-08 20:11:00,
2013-05-08 15:16:00,82.8,63.3,30.06,South,174,0.0,-999.0,52,0.00,,,0.00,WeatherSnoop3.0,2013-05-08 20:16:00,
2013-05-08 15:21:00,82.9,64.0,30.06,SSW,194,0.0,-999.0,53,0.00,,,0.00,WeatherSnoop3.0,2013-05-08 20:21:00,
2013-05-08 15:26:00,83.0,64.1,30.05,SE,136,0.0,-999.0,53,0.00,,,0.00,WeatherSnoop3.0,2013-05-08 20:26:00,
2013-05-08 15:31:00,83.2,63.2,30.05,South,181,0.0,-999.0,51,0.00,,,0.00,WeatherSnoop3.0,2013-05-08 20:31:00,
2013-05-08 15:36:00,82.8,62.8,30.05,SSW,203,0.0,-999.0,51,0.00,,,0.00,WeatherSnoop3.0,2013-05-08 20:36:00,
2013-05-08 15:41:00,83.0,62.4,30.05,SSW,197,0.0,-999.0,50,0.00,,,0.00,WeatherSnoop3.0,2013-05-08 20:41:00,
2013-05-08 15:46:00,83.1,63.6,30.05,SSE,153,0.0,-999.0,52,0.00,,,0.00,WeatherSnoop3.0,2013-05-08 20:46:00,
2013-05-08 15:51:00,83.6,64.1,30.05,SSW,192,0.0,-999.0,52,0.00,,,0.00,WeatherSnoop3.0,2013-05-08 20:51:00,
2013-05-08 15:56:00,83.2,63.2,30.05,SSW,209,0.0,-999.0,51,0.00,,,0.00,WeatherSnoop3.0,2013-05-08 20:56:00,
2013-05-08 16:01:00,82.4,62.4,30.05,SSW,193,0.0,-999.0,51,0.00,,,0.00,WeatherSnoop3.0,2013-05-08 21:01:00,
2013-05-08 16:06:00,82.5,63.1,30.05,SSE,165,0.0,-999.0,52,0.00,,,0.00,WeatherSnoop3.0,2013-05-08 21:06:00,
2013-05-08 16:11:00,82.9,62.9,30.05,SE,141,0.0,-999.0,51,0.00,,,0.00,WeatherSnoop3.0,2013-05-08 21:11:00,
2013-05-08 16:16:00,82.6,62.6,30.05,SSE,165,0.0,-999.0,51,0.00,,,0.00,WeatherSnoop3.0,2013-05-08 21:16:00,
2013-05-08 16:21:00,82.9,62.9,30.04,SE,136,0.0,-999.0,51,0.00,,,0.00,WeatherSnoop3.0,2013-05-08 21:21:00,
2013-05-08 16:26:00,82.8,62.8,30.04,SSW,194,0.0,-999.0,51,0.00,,,0.00,WeatherSnoop3.0,2013-05-08 21:26:00,
2013-05-08 16:31:00,82.4,62.4,30.04,SE,132,0.0,-999.0,51,0.00,,,0.00,WeatherSnoop3.0,2013-05-08 21:31:00,
2013-05-08 16:36:00,82.5,62.0,30.04,SE,140,0.0,-999.0,50,0.00,,,0.00,WeatherSnoop3.0,2013-05-08 21:36:00,
2013-05-08 16:41:00,82.6,62.6,30.04,South,188,0.0,-999.0,51,0.00,,,0.00,WeatherSnoop3.0,2013-05-08 21:41:00,
2013-05-08 16:46:00,82.3,62.9,30.04,South,182,0.0,-999.0,52,0.00,,,0.00,WeatherSnoop3.0,2013-05-08 21:46:00,
2013-05-08 16:51:00,82.2,61.7,30.05,SSE,149,0.0,-999.0,50,0.00,,,0.00,WeatherSnoop3.0,2013-05-08 21:51:00,
2013-05-08 16:56:00,82.3,60.0,30.05,SSE,147,0.0,-999.0,47,0.00,,,0.00,WeatherSnoop3.0,2013-05-08 21:56:00,
2013-05-08 17:01:00,82.4,61.3,30.04,SE,133,0.0,-999.0,49,0.00,,,0.00,WeatherSnoop3.0,2013-05-08 22:01:00,
2013-05-08 17:06:00,82.5,62.0,30.04,South,172,0.0,-999.0,50,0.00,,,0.00,WeatherSnoop3.0,2013-05-08 22:06:00,
2013-05-08 17:11:00,82.5,63.1,30.04,South,171,0.0,-999.0,52,0.00,,,0.00,WeatherSnoop3.0,2013-05-08 22:11:00,
2013-05-08 17:16:00,82.4,61.9,30.04,SSE,148,0.0,-999.0,50,0.00,,,0.00,WeatherSnoop3.0,2013-05-08 22:16:00,
2013-05-08 17:21:00,82.4,62.4,30.04,SSE,163,0.0,-999.0,51,0.00,,,0.00,WeatherSnoop3.0,2013-05-08 22:21:00,
2013-05-08 17:26:00,82.5,63.1,30.04,ESE,121,0.0,-999.0,52,0.00,,,0.00,WeatherSnoop3.0,2013-05-08 22:26:00,
2013-05-08 17:31:00,82.5,60.8,30.04,South,178,0.0,-999.0,48,0.00,,,0.00,WeatherSnoop3.0,2013-05-08 22:31:00,
2013-05-08 17:36:00,82.0,60.3,30.04,SSE,154,0.0,-999.0,48,0.00,,,0.00,WeatherSnoop3.0,2013-05-08 22:36:00,
2013-05-08 17:41:00,81.6,61.7,30.04,SSE,150,0.0,-999.0,51,0.00,,,0.00,WeatherSnoop3.0,2013-05-08 22:41:00,
2013-05-08 17:46:00,81.7,60.7,30.04,SE,144,0.0,-999.0,49,0.00,,,0.00,WeatherSnoop3.0,2013-05-08 22:46:00,
2013-05-08 17:51:00,81.5,61.0,30.04,SE,140,0.0,-999.0,50,0.00,,,0.00,WeatherSnoop3.0,2013-05-08 22:51:00,
2013-05-08 17:56:00,80.7,59.7,30.04,SSE,155,0.0,-999.0,49,0.00,,,0.00,WeatherSnoop3.0,2013-05-08 22:56:00,
2013-05-08 18:01:00,80.0,60.2,30.04,South,183,0.0,-999.0,51,0.00,,,0.00,WeatherSnoop3.0,2013-05-08 23:01:00,
2013-05-08 18:06:00,79.5,59.2,30.04,SSE,155,0.0,-999.0,50,0.00,,,0.00,WeatherSnoop3.0,2013-05-08 23:06:00,
2013-05-08 18:11:00,79.1,59.4,30.04,SSE,168,0.0,-999.0,51,0.00,,,0.00,WeatherSnoop3.0,2013-05-08 23:11:00,
2013-05-08 18:16:00,78.9,58.7,30.04,SSE,150,0.0,-999.0,50,0.00,,,0.00,WeatherSnoop3.0,2013-05-08 23:16:00,
2013-05-08 18:21:00,78.6,58.9,30.04,SSE,156,0.0,-999.0,51,0.00,,,0.00,WeatherSnoop3.0,2013-05-08 23:21:00,
2013-05-08 18:26:00,78.2,59.6,30.04,SSE,162,0.0,-999.0,53,0.00,,,0.00,WeatherSnoop3.0,2013-05-08 23:26:00,
2013-05-08 18:31:00,78.0,60.0,30.04,SSE,155,0.0,-999.0,54,0.00,,,0.00,WeatherSnoop3.0,2013-05-08 23:31:00,
2013-05-08 18:36:00,77.6,60.1,30.04,SSE,152,0.0,-999.0,55,0.00,,,0.00,WeatherSnoop3.0,2013-05-08 23:36:00,
2013-05-08 18:41:00,77.4,61.0,30.04,SE,140,0.0,-999.0,57,0.00,,,0.00,WeatherSnoop3.0,2013-05-08 23:41:00,
2013-05-08 18:46:00,77.2,61.3,30.03,SSE,148,0.0,-999.0,58,0.00,,,0.00,WeatherSnoop3.0,2013-05-08 23:46:00,
2013-05-08 18:51:00,77.0,60.6,30.04,SSE,148,0.0,-999.0,57,0.00,,,0.00,WeatherSnoop3.0,2013-05-08 23:51:00,
2013-05-08 18:56:00,76.7,60.3,30.04,SE,146,0.0,-999.0,57,0.00,,,0.00,WeatherSnoop3.0,2013-05-08 23:56:00,
2013-05-08 19:01:00,76.5,59.6,30.03,SE,126,0.0,-999.0,56,0.00,,,0.00,WeatherSnoop3.0,2013-05-09 00:01:00,
2013-05-08 19:06:00,76.2,59.3,30.04,SE,138,0.0,-999.0,56,0.00,,,0.00,WeatherSnoop3.0,2013-05-09 00:06:00,
2013-05-08 19:11:00,75.9,59.6,30.04,ESE,123,0.0,-999.0,57,0.00,,,0.00,WeatherSnoop3.0,2013-05-09 00:11:00,
2013-05-08 19:16:00,75.7,58.9,30.04,SSE,155,0.0,-999.0,56,0.00,,,0.00,WeatherSnoop3.0,2013-05-09 00:16:00,
2013-05-08 19:21:00,75.4,58.6,30.03,SSE,152,0.0,-999.0,56,0.00,,,0.00,WeatherSnoop3.0,2013-05-09 00:21:00,
2013-05-08 19:26:00,75.0,58.7,30.04,SSE,152,0.0,-999.0,57,0.00,,,0.00,WeatherSnoop3.0,2013-05-09 00:26:00,
2013-05-08 19:31:00,74.7,58.9,30.04,SE,144,0.0,-999.0,58,0.00,,,0.00,WeatherSnoop3.0,2013-05-09 00:31:00,
2013-05-08 19:36:00,74.3,59.0,30.04,SE,138,0.0,-999.0,59,0.00,,,0.00,WeatherSnoop3.0,2013-05-09 00:36:00,
2013-05-08 19:41:00,74.0,59.2,30.04,SSE,148,0.0,-999.0,60,0.00,,,0.00,WeatherSnoop3.0,2013-05-09 00:41:00,
2013-05-08 19:46:00,73.6,58.8,30.04,SSE,148,0.0,-999.0,60,0.00,,,0.00,WeatherSnoop3.0,2013-05-09 00:46:00,
2013-05-08 19:51:00,73.2,58.9,30.04,SSE,148,0.0,-999.0,61,0.00,,,0.00,WeatherSnoop3.0,2013-05-09 00:51:00,
2013-05-08 19:56:00,72.8,59.0,30.04,SSE,148,0.0,-999.0,62,0.00,,,0.00,WeatherSnoop3.0,2013-05-09 00:56:00,
2013-05-08 20:01:00,72.3,59.4,30.04,SSE,148,0.0,-999.0,64,0.00,,,0.00,WeatherSnoop3.0,2013-05-09 01:01:00,
2013-05-08 20:06:00,71.9,59.5,30.04,SSE,148,0.0,-999.0,65,0.00,,,0.00,WeatherSnoop3.0,2013-05-09 01:06:00,
2013-05-08 20:11:00,71.4,59.4,30.04,SSE,148,0.0,-999.0,66,0.00,,,0.00,WeatherSnoop3.0,2013-05-09 01:11:00,
2013-05-08 20:16:00,70.9,59.4,30.04,SSE,148,0.0,-999.0,67,0.00,,,0.00,WeatherSnoop3.0,2013-05-09 01:16:00,
2013-05-08 20:21:00,70.5,59.4,30.04,SSE,148,0.0,-999.0,68,0.00,,,0.00,WeatherSnoop3.0,2013-05-09 01:21:00,
2013-05-08 20:26:00,70.2,59.5,30.04,SSE,148,0.0,-999.0,69,0.00,,,0.00,WeatherSnoop3.0,2013-05-09 01:26:00,
2013-05-08 20:31:00,70.1,59.9,30.04,SSE,148,0.0,-999.0,70,0.00,,,0.00,WeatherSnoop3.0,2013-05-09 01:31:00,
2013-05-08 20:36:00,69.9,59.7,30.04,SSE,148,0.0,-999.0,70,0.00,,,0.00,WeatherSnoop3.0,2013-05-09 01:36:00,
2013-05-08 20:41:00,69.9,60.1,30.05,SSE,148,0.0,-999.0,71,0.00,,,0.00,WeatherSnoop3.0,2013-05-09 01:41:00,
2013-05-08 20:46:00,69.9,60.5,30.05,SSE,150,0.0,-999.0,72,0.00,,,0.00,WeatherSnoop3.0,2013-05-09 01:46:00,
2013-05-08 20:51:00,69.9,60.8,30.05,SSE,151,0.0,-999.0,73,0.00,,,0.00,WeatherSnoop3.0,2013-05-09 01:51:00,
2013-05-08 20:56:00,69.8,60.7,30.05,SSE,150,0.0,-999.0,73,0.00,,,0.00,WeatherSnoop3.0,2013-05-09 01:56:00,
2013-05-08 21:01:00,69.6,60.9,30.05,SSE,151,0.0,-999.0,74,0.00,,,0.00,WeatherSnoop3.0,2013-05-09 02:01:00,
2013-05-08 21:06:00,69.4,61.1,30.05,SSE,159,0.0,-999.0,75,0.00,,,0.00,WeatherSnoop3.0,2013-05-09 02:06:00,
2013-05-08 21:11:00,69.2,61.3,30.05,SSE,156,0.0,-999.0,76,0.00,,,0.00,WeatherSnoop3.0,2013-05-09 02:11:00,
2013-05-08 21:16:00,68.9,61.0,30.05,SSE,155,0.0,-999.0,76,0.00,,,0.00,WeatherSnoop3.0,2013-05-09 02:16:00,
2013-05-08 21:21:00,68.7,61.2,30.05,SSE,153,0.0,-999.0,77,0.00,,,0.00,WeatherSnoop3.0,2013-05-09 02:21:00,
2013-05-08 21:26:00,68.5,61.4,30.05,SSE,153,0.0,-999.0,78,0.00,,,0.00,WeatherSnoop3.0,2013-05-09 02:26:00,
2013-05-08 21:31:00,68.3,61.5,30.05,SSE,153,0.0,-999.0,79,0.00,,,0.00,WeatherSnoop3.0,2013-05-09 02:31:00,
2013-05-08 21:36:00,68.1,61.7,30.06,SSE,150,0.0,-999.0,80,0.00,,,0.00,WeatherSnoop3.0,2013-05-09 02:36:00,
2013-05-08 21:41:00,67.9,61.8,30.06,SSE,151,0.0,-999.0,81,0.00,,,0.00,WeatherSnoop3.0,2013-05-09 02:41:00,
2013-05-08 21:46:00,67.7,61.7,30.06,SSE,151,0.0,-999.0,81,0.00,,,0.00,WeatherSnoop3.0,2013-05-09 02:46:00,
2013-05-08 21:51:00,67.5,61.8,30.06,SSE,150,0.0,-999.0,82,0.00,,,0.00,WeatherSnoop3.0,2013-05-09 02:51:00,
2013-05-08 21:56:00,67.3,61.6,30.07,SSE,151,0.0,-999.0,82,0.00,,,0.00,WeatherSnoop3.0,2013-05-09 02:56:00,
2013-05-08 22:01:00,67.0,61.7,30.07,SSE,151,0.0,-999.0,83,0.00,,,0.00,WeatherSnoop3.0,2013-05-09 03:01:00,
2013-05-08 22:06:00,66.8,61.5,30.07,SSE,150,0.0,-999.0,83,0.00,,,0.00,WeatherSnoop3.0,2013-05-09 03:06:00,
2013-05-08 22:11:00,66.7,61.7,30.06,SSE,151,0.0,-999.0,84,0.00,,,0.00,WeatherSnoop3.0,2013-05-09 03:11:00,
2013-05-08 22:16:00,66.6,61.6,30.06,SSE,151,0.0,-999.0,84,0.00,,,0.00,WeatherSnoop3.0,2013-05-09 03:16:00,
2013-05-08 22:21:00,66.5,61.8,30.06,SSE,151,0.0,-999.0,85,0.00,,,0.00,WeatherSnoop3.0,2013-05-09 03:21:00,
2013-05-08 22:26:00,66.3,61.6,30.06,SSE,151,0.0,-999.0,85,0.00,,,0.00,WeatherSnoop3.0,2013-05-09 03:26:00,
2013-05-08 22:31:00,66.3,62.0,30.07,SSE,151,0.0,-999.0,86,0.00,,,0.00,WeatherSnoop3.0,2013-05-09 03:31:00,
2013-05-08 22:36:00,66.2,61.9,30.07,SSE,150,0.0,-999.0,86,0.00,,,0.00,WeatherSnoop3.0,2013-05-09 03:36:00,
2013-05-08 22:41:00,66.0,61.7,30.07,SSE,151,0.0,-999.0,86,0.00,,,0.00,WeatherSnoop3.0,2013-05-09 03:41:00,
2013-05-08 22:46:00,65.9,61.9,30.07,SSE,151,0.0,-999.0,87,0.00,,,0.00,WeatherSnoop3.0,2013-05-09 03:46:00,
2013-05-08 22:51:00,65.8,61.8,30.06,SSE,151,0.0,-999.0,87,0.00,,,0.00,WeatherSnoop3.0,2013-05-09 03:51:00,
2013-05-08 22:56:00,65.7,62.0,30.06,SSE,151,0.0,-999.0,88,0.00,,,0.00,WeatherSnoop3.0,2013-05-09 03:56:00,
2013-05-08 23:01:00,65.5,61.8,30.06,SSE,151,0.0,-999.0,88,0.00,,,0.00,WeatherSnoop3.0,2013-05-09 04:01:00,
2013-05-08 23:06:00,65.4,61.7,30.06,SSE,151,0.0,-999.0,88,0.00,,,0.00,WeatherSnoop3.0,2013-05-09 04:06:00,
2013-05-08 23:11:00,65.4,62.1,30.06,SSE,150,0.0,-999.0,89,0.00,,,0.00,WeatherSnoop3.0,2013-05-09 04:11:00,
2013-05-08 23:16:00,65.3,62.0,30.06,ESE,121,0.0,-999.0,89,0.00,,,0.00,WeatherSnoop3.0,2013-05-09 04:16:00,
2013-05-08 23:21:00,65.3,62.0,30.06,SE,128,0.0,-999.0,89,0.00,,,0.00,WeatherSnoop3.0,2013-05-09 04:21:00,
2013-05-08 23:26:00,65.3,62.3,30.05,SE,138,0.0,-999.0,90,0.00,,,0.00,WeatherSnoop3.0,2013-05-09 04:26:00,
2013-05-08 23:31:00,65.3,62.3,30.06,SE,138,0.0,-999.0,90,0.00,,,0.00,WeatherSnoop3.0,2013-05-09 04:31:00,
2013-05-08 23:36:00,65.4,62.4,30.06,SE,138,0.0,-999.0,90,0.00,,,0.00,WeatherSnoop3.0,2013-05-09 04:36:00,
2013-05-08 23:41:00,65.4,62.4,30.06,SE,138,0.0,-999.0,90,0.00,,,0.00,WeatherSnoop3.0,2013-05-09 04:41:00,
2013-05-08 23:46:00,65.4,62.7,30.06,SE,138,0.0,-999.0,91,0.00,,,0.00,WeatherSnoop3.0,2013-05-09 04:46:00,
2013-05-08 23:51:00,65.4,62.7,30.06,SE,138,0.0,-999.0,91,0.00,,,0.00,WeatherSnoop3.0,2013-05-09 04:51:00,
2013-05-08 23:56:00,65.4,62.7,30.06,SE,138,0.0,-999.0,91,0.00,,,0.00,WeatherSnoop3.0,2013-05-09 04:56:00,